This demonstration page uses our WeatherBlox Daily Observations layout. Learn more.

Left ArrowRight Arrow

Hourly Observations for December 6, 2020

Temp ( °F °C ) Dew Point ( °F °C ) Humidity (%) Winds ( mph kmh ) Pressure ( in mb ) Visibility ( mi km ) Precip ( " mm )
12:54 am 00:54 Clear 35 1.7 26 -3.3 70 70 NNW 7 11 30.16 1021 10 16.0934 0 0
1:54 am 01:54 Clear 26 -3.3 21 -6.1 81 81 NNW 6 9 30.16 1022 10 16.0934 0 0
2:54 am 02:54 Clear 27 -2.8 22 -5.6 81 81 NNW 6 9 30.17 1022 10 16.0934 0 0
3:54 am 03:54 Clear 26 -3.3 21 -6.1 81 81 NNW 7 11 30.18 1022 10 16.0934 0 0
4:54 am 04:54 Clear 32 0 26 -3.3 79 79 N 7 11 30.17 1022 10 16.0934 0 0
5:54 am 05:54 Clear 32 0 27 -2.8 82 82 NNW 7 11 30.18 1022 10 16.0934 0 0
6:54 am 06:54 Clear 29 -1.7 24 -4.4 82 82 NNE 3 6 30.21 1023 10 16.0934 0 0
7:54 am 07:54 Sunny 26 -3.3 23 -5 88 88 N 6 9 30.21 1023 10 16.0934 0 0
8:54 am 08:54 Sunny 32 0 26 -3.3 79 79 N 5 7 30.22 1024 10 16.0934 0 0
9:54 am 09:54 Sunny 35 1.7 27 -2.8 72 72 NNE 10 17 30.23 1024 10 16.0934 0 0
10:54 am 10:54 Partly Cloudy 35 1.7 27 -2.8 72 72 NE 15 24 30.23 1024 10 16.0934 0 0
11:03 am 11:03 Mostly Cloudy 33 0.6 27 -2.8 78 78 NNE 10 17 30.26 1025 10 16.0934 0 0
11:54 am 11:54 Cloudy 32 0 28 -2.2 85 85 N 8 13 30.23 1024 10 16.0934 0 0
12:54 pm 12:54 Cloudy 33 0.6 28 -2.2 82 82 NNE 8 13 30.22 1023 8 12.87472 0 0
1:54 pm 13:54 Cloudy 35 1.7 29 -1.7 78 78 N 9 15 30.21 1023 8 12.87472 0 0
2:54 pm 14:54 Partly Cloudy 36 2.2 29 -1.7 76 76 NNE 9 15 30.2 1023 10 16.0934 0 0
3:54 pm 15:54 Sunny 37 2.8 29 -1.7 73 73 NE 10 17 30.21 1023 10 16.0934 0 0
4:54 pm 16:54 Sunny 32 0 27 -2.8 82 82 NE 5 7 30.22 1023 10 16.0934 0 0
5:54 pm 17:54 Clear 30 -1.1 26 -3.3 85 85 E 3 6 30.21 1023 10 16.0934 0 0
6:54 pm 18:54 Clear 29 -1.7 25 -3.9 85 85 Calm 30.2 1023 9 14.48406 0 0
7:54 pm 19:54 Clear 27 -2.8 24 -4.4 89 89 Calm 30.21 1023 8 12.87472 0 0
8:40 pm 20:40 Partly Cloudy with Mist and Fog 25 -3.9 22 -5.6 88 88 SSE 5 7 30.24 1024 6 9.65604 0 0
8:49 pm 20:49 Mostly Cloudy with Mist and Fog 25 -4 21 -6 86 86 S 5 7 30.24 1024 6 9.65604 0 0
8:54 pm 20:54 Mostly Cloudy with Mist and Fog 26 -3.3 23 -5 88 88 S 5 7 30.2 1023 6 9.65604 0 0
9:05 pm 21:05 Cloudy with Mist and Fog 26 -3.3 23 -5 88 88 S 5 7 30.24 1024 1.75 2.816345 0 0
9:16 pm 21:16 Mostly Cloudy with Freezing Fog 27 -2.8 24 -4.4 89 89 S 5 7 30.23 1024 0.5 0.80467 0 0
9:21 pm 21:21 Mostly Cloudy with Freezing Fog 28 -2.2 25 -3.9 88 88 SSW 5 7 30.23 1024 0.25 0.402335 0 0
9:31 pm 21:31 Mostly Cloudy with Freezing Fog 27 -2.8 25 -3.9 92 92 SSW 5 7 30.23 1024 0.25 0.402335 0 0
9:47 pm 21:47 Mostly Cloudy with Freezing Fog 27 -2.8 25 -3.9 92 92 SSW 5 7 30.22 1023 0.25 0.402335 0 0
9:54 pm 21:54 Mostly Cloudy with Freezing Fog 26 -3.3 24 -4.4 92 92 SSW 5 7 30.19 1022 0.5 0.80467 0 0
10:09 pm 22:09 Mostly Cloudy with Mist and Fog 25 -3.9 23 -5 92 92 S 3 6 30.24 1024 1 1.60934 0 0
10:18 pm 22:18 Cloudy with Mist and Fog 24 -4.4 22 -5.6 91 91 S 3 6 30.24 1024 1 1.60934 0 0
10:34 pm 22:34 Mostly Cloudy with Mist and Fog 24 -4.4 21 -6.1 88 88 Calm 30.24 1024 3 4.82802 0 0
10:46 pm 22:46 Partly Cloudy with Mist and Fog 23 -5 21 -6.1 92 92 S 5 7 30.24 1024 3 4.82802 0 0
10:54 pm 22:54 Mostly Clear with Mist and Fog 21 -6.1 19 -7.2 92 92 S 6 9 30.19 1023 4 6.43736 0 0
11:19 pm 23:19 Clear with Mist and Fog 22 -5.6 19 -7.2 89 89 S 5 7 30.24 1024 1.5 2.41401 0 0
11:40 pm 23:40 Clear with Mist and Fog 22 -5.6 19 -7.2 89 89 S 3 6 30.24 1024 3 4.82802 0 0
11:54 pm 23:54 Clear with Mist and Fog 23 -5 20 -6.7 88 88 S 3 6 30.19 1022 5 8.0467 0 0

Powered by AerisWeather